Regional Weather Roundup
Issued by NWS Newport/Morehead, NC

Current Version | Previous Version | Graphics & Text | Print | Product List | Glossary On
Versions: 1 2 3 4 5 6 7 8 9 10 11 12 13 14 15 16 17 18 19 20 21 22 23 24 25 26 27 28 29 30 31 32 33 34 35 36 37 38 39 40 41 42 43 44 45 46 47 48 49 50
000 ASUS42 KMHX 262110 RWRMHX WEATHER ROUNDUP FOR EASTERN NORTH CAROLINA NATIONAL WEATHER SERVICE NEWPORT/MOREHEAD CITY NC 400 PM EST WED NOV 26 2014 NOTE: "FAIR" INDICATES FEW OR NO CLOUDS BELOW 12,000 FEET WITH NO SIGNIFICANT WEATHER AND/OR OBSTRUCTIONS TO VISIBILITY NCZ015>017-031-032-045>047-102-103-262200- NORTH COAST CITY SKY/WX TMP DP RH WIND PRES REMARKS EDENTON CLOUDY 45 44 97 NW13 29.89R FOG ELIZABETH CITY LGT RAIN 48 43 82 W18G26 29.87R KITTY HAWK RAIN 47 46 97 NW15G24 29.81R MANTEO LGT RAIN 46 45 94 NW16G22 29.83R $$ NCZ045>047-081-094-103-104-262200- CENTRAL COAST CITY SKY/WX TMP DP RH WIND PRES REMARKS FRISCO CLOUDY 48 48 100 NW15G28 29.81R SWANQUARTER N/A 46 N/A N/A NW21 29.82S $$ NCZ095-097-098-100-101-262200- SOUTHERN COAST CITY SKY/WX TMP DP RH WIND PRES REMARKS BEAUFORT CLOUDY 48 46 93 NW18 29.90R CEDAR ISLAND N/A 48 N/A N/A W21G32 29.91R JACKSONVILLE CLOUDY 49 46 90 NW15 29.92F PINEY ISLAND LGT RAIN 50 45 83 NW20G29 29.89R WILMINGTON CLOUDY 50 46 86 NW13 29.96R $$ NCZ011>013-027>030-043-044-078>080-089-090>093-098-262200- COASTAL PLAIN CITY SKY/WX TMP DP RH WIND PRES REMARKS AHOSKIE CLOUDY 42 40 93 NW5 29.93R CLINTON CLOUDY 48 45 90 NW10G16 29.98R ELIZABETHTOWN CLOUDY 49 46 88 NW9 29.98R GOLDSBORO CLOUDY 46 45 93 NW13 29.95R GREENVILLE CLOUDY 45 43 93 NW8 29.94S HAVELOCK CLOUDY 48 45 89 NW14 29.91F KENANSVILLE CLOUDY 47 44 89 NW12 29.96R KINSTON MOCLDY 46 45 93 NW8G17 29.94S NEW BERN CLOUDY 49 45 86 NW14G20 29.92F RICHLANDS CLOUDY 48 43 81 W5 29.94R ROCKY MOUNT CLOUDY 44 40 85 NW10G21 29.96R WASHINGTON CLOUDY 46 44 94 NW7 29.91S WHITEVILLE CLOUDY 50 45 83 W6 29.99R $$ AMZ130-135-150-152-154-156-158-170-250-252-270-ANZ085-086-088-633-658-670-262200- MARINE OBSERVATIONS STATION/POSITION TIME TEMP WIND PRES WAVE SWELL AIR SEA DIR/SP/G HT/PER HT/PER (UTC) (F) (DEG/KT/KT) (MB) (FT/S) (FT/S) CHESAPEAKE LIGHT 2000 46 360/ 28/ 30 1006.6 64 E VA BEACH 2100 57 63 330/ 19/ 23 1003.9 11/ 8 7/ 8 DUCK 2100 48 57 320/ 22/ 30 1008.5 2 E DUCK 2100 58 N/A 9/ 8 2/11 10 NE DUCK 2100 60 N/A 10/ 8 2/11 OREGON INLET 2100 49 59 290/ 16/ 21 1008.5 13E OREGON INLT 2100 63 N/A 10/ 9 2/11 HATTERAS CG 2100 50 63 290/ 22/ 25 1010.1 DIAMOND BUOY 2100 57 280/ 19/ 23 1007.9 10/ 9 7/ 9 17 S OCRACOKE NOT AVBL CAPE LOOKOUT 2100 49 310/ 20/ 25 1012.1 BEAUFORT LAB 2100 48 59 320/ 10/ 16 1011.4 30 SE NEW RIVER 2100 53 66 310/ 23/ 29 1012.6 7/ 8 5 SE WRIGHTSVLE 2000 49 59 330/ 17/ 21 1012.2 225 S CAPE HAT 2039 72 73 280/ 23/ 27 1011.9 10/ 8 41 SE CHARLESTON 2100 58 74 300/ 21/ 25 1015.6 6/ 5 3/ 9 $$

USA.gov is the U.S. government's official web portal to all federal, state and local government web resources and services.